Powrót do katalogu

JILIN-01 KUANFU 01C

AktywnyNaukaSSO
NORAD 52443·PAYLOAD·🇨🇳 China

Wystrzelony May 5, 2022 z Taiyuan Satellite Launch Center

Loading…

Następne Przeloty (najbliższe 24 godziny)

TLE

ŚwieżeSource: Space-Track

Epoka: Sep 14, 2026, 12:10 UTC

1 52443U 22048A   26257.50741867  .00002075  00000-0  13166-3 0  9998
2 52443  97.5192 333.0287 0018550  18.7839 341.4071 15.09872767240675

Śledź JILIN-01 KUANFU 01C w czasie rzeczywistym z AllMySat

Download on the App Store